This is the latest recevied weather packets stored in our database for station/object WA0GMH-1. If no packets are shown the sender has not sent any weather packets the latest 10 day(s).
| Time | Temp. | Humidity | Pressure | Rain* | Wind** | Luminosity | Snow |
|---|---|---|---|---|---|---|---|
| 1777868824 | 15° C | 83% | 1006.2 hPa | 0 mm | - | - | - |
| 1777868422 | 15° C | 82% | 1006.3 hPa | 0 mm | - | - | - |
| 1777868020 | 15.56° C | 81% | 1006.4 hPa | 0 mm | - | - | - |
| 1777867617 | 15.56° C | 80% | 1006.4 hPa | 0 mm | - | - | - |
| 1777867216 | 15.56° C | 79% | 1006.4 hPa | 0 mm | - | - | - |
| 1777866813 | 16.11° C | 79% | 1006.5 hPa | 0 mm | - | - | - |
| 1777866411 | 16.11° C | 78% | 1006.6 hPa | 0 mm | - | - | - |
| 1777866008 | 16.67° C | 77% | 1006.8 hPa | 0 mm | - | - | - |
| 1777865607 | 16.67° C | 76% | 1006.8 hPa | 0 mm | - | - | - |
| 1777865204 | 16.67° C | 76% | 1006.9 hPa | 0 mm | - | - | - |
| 1777864802 | 16.67° C | 76% | 1007 hPa | 0 mm | - | - | - |
| 1777864399 | 17.22° C | 75% | 1007 hPa | 0 mm | - | - | - |
| 1777863998 | 17.22° C | 75% | 1007 hPa | 0 mm | - | - | - |
| 1777863595 | 17.22° C | 75% | 1007 hPa | 0 mm | - | - | - |
| 1777863193 | 17.22° C | 75% | 1007.1 hPa | 0 mm | - | - | - |
| 1777862790 | 17.78° C | 75% | 1007 hPa | 0 mm | - | - | - |
| 1777862389 | 17.78° C | 75% | 1007.3 hPa | 0 mm | - | - | - |
| 1777861986 | 18.33° C | 73% | 1007.3 hPa | 0 mm | - | - | - |
| 1777861584 | 18.33° C | 73% | 1007.3 hPa | 0 mm | - | - | - |
| 1777861181 | 18.33° C | 72% | 1007.3 hPa | 0 mm | - | - | - |
| 1777860780 | 18.89° C | 72% | 1007.2 hPa | 0 mm | - | - | - |
| 1777860377 | 19.44° C | 72% | 1007.4 hPa | 0 mm | - | - | - |
| 1777859975 | 19.44° C | 71% | 1007.3 hPa | 0 mm | - | - | - |
| 1777859572 | 20° C | 70% | 1007.4 hPa | 0 mm | - | - | - |
| 1777859171 | 20.56° C | 70% | 1007.3 hPa | 0 mm | - | - | - |
* Rain since midnight (hover to see other rain measurements)
** Current wind speed in m/s (hover to see current wind gust speed)